Location: Britswerd
(53.1122°N, 5.6749°E)
Time: 18:08:31
(UTC+00:00)

Daily predictions for brighter satellites

Satellite Brightness Start Highest point End
(mag) Time Altitude Azimuth Time Altitude Azimuth Time Altitude Azimuth
USA 215 4.5 20:55:53 10° E 21:00:18 19° SE 21:04:41 10° SSE
BREEZE-M DEB (TANK) 3.4 20:59:04 10° S 21:01:01 17° SE 21:04:01 10° E
Cosmos 1725 Rocket 4.2 20:55:27 10° N 21:01:35 59° ENE 21:07:41 10° SSE
SL-23 DEB 4.2 20:58:12 10° W 21:01:53 73° S 21:07:58 10° E
Cosmos 2333 Rocket 3.2 20:57:44 10° SSE 21:02:33 29° ESE 21:07:23 10° NE
Cosmos 1727 Rocket 4.2 20:56:39 10° SSW 21:02:58 80° W 21:09:17 10° N
Cosmos 1953 2.7 21:01:12 10° NNW 21:05:15 67° W 21:09:17 10° S
Cosmos 1626 2.4 21:05:13 10° S 21:08:48 52° E 21:12:25 10° NNE
USA 238 DEB 4.1 21:03:36 10° WSW 21:10:14 72° NW 21:17:17 10° NE
USA 238 4.1 21:03:42 10° WSW 21:10:19 72° NW 21:17:23 10° NE
Cosmos 1844 3.9 21:05:15 10° NW 21:10:48 72° WSW 21:16:22 10° SSE
SL-14 R/B 3.9 21:09:09 10° SSE 21:12:56 40° E 21:16:44 10° NNE
Cosmos 2219 Rocket 3.1 21:08:48 10° SSE 21:13:37 30° ESE 21:18:28 10° NE
Cosmos 1867 4.0 21:09:29 10° NW 21:14:58 60° NE 21:20:23 10° ESE
Cosmos 1802 Rocket 4.1 21:10:14 10° N 21:16:31 87° W 21:22:52 10° S
CENTAUR R/B 3.2 21:12:05 10° WSW 21:18:20 69° NW 21:25:54 10° NE
Cosmos 1536 Rocket 4.2 21:15:28 10° SSE 21:19:41 42° E 21:23:54 10° NNE
CZ-4B DEB 4.2 21:19:02 10° SSE 21:22:12 79° ENE 21:25:23 10° NNW
DNEPR-1 R/B 3.5 21:18:09 10° NW 21:22:23 75° SW 21:26:37 11° SE
NOSS 8 (A) 4.0 21:22:46 10° SW 21:25:54 90° ENE 21:28:50 10° NE
Meteor 1-24 Rocket 4.4 21:21:15 10° SSE 21:26:07 37° E 21:31:07 10° NNE
Cosmos 389 Rocket 3.8 21:24:18 10° N 21:27:17 27° ENE 21:30:14 10° SE
KORONAS-FOTON 4.4 21:24:11 10° SSW 21:27:56 57° WNW 21:31:41 10° N
Cosmos 1025 Rocket 3.0 21:24:03 10° S 21:28:27 86° E 21:32:50 10° NNE
Cosmos 2237 Rocket 4.1 21:28:02 10° ESE 21:30:37 13° E 21:33:12 10° ENE
Cosmos 1459 Rocket 4.4 21:24:48 10° NNW 21:30:45 59° W 21:36:40 10° S
Genesis I 4.4 21:27:52 10° WSW 21:31:40 48° NW 21:35:32 10° NE
Cosmos 1461 4.3 21:28:45 10° WNW 21:32:22 28° WSW 21:35:51 10° S
Cosmos 2228 3.8 21:28:51 10° N 21:33:03 41° ENE 21:36:56 12° SE
Resurs 01 Rocket 4.2 21:32:06 10° WSW 21:34:39 15° W 21:37:13 10° NW
Cosmos 2360 Rocket 2.2 21:30:04 10° SSW 21:35:43 87° ESE 21:41:25 10° NNE
SL-16 R/B 3.1 21:30:15 10° SW 21:35:48 54° NW 21:41:23 10° NNE
USA 267 3.4 21:30:40 10° ESE 21:37:13 81° NNE 21:43:48 10° WNW
Cosmos 2322 Rocket 2.8 21:32:11 10° SW 21:37:50 62° NW 21:43:31 10° NNE
Cosmos 1486 Rocket 4.2 21:35:10 10° NNW 21:40:23 64° ENE 21:45:12 12° SE
Cosmos 1975 Rocket 4.3 21:38:17 10° SW 21:42:27 42° WNW 21:46:40 10° N
Cosmos 1455 3.8 21:39:20 10° N 21:42:34 25° ENE 21:45:44 10° SE
Cosmos 1674 4.0 21:41:01 10° SW 21:44:29 37° WNW 21:47:59 10° N
ATLAS CENTAUR R/B 2.0 21:40:24 10° NW 21:44:33 50° SW 21:48:22 13° SSE
Cosmos 1110 Rocket 4.1 21:41:06 10° SSW 21:46:17 81° WNW 21:51:33 10° NNE
SPOT 5 3.9 21:42:20 10° S 21:47:13 43° W 21:51:53 10° NNW
Cosmos 968 Rocket 3.5 21:43:47 10° NNW 21:48:57 89° SW 21:53:28 13° SSE
Cosmos 1300 2.9 21:47:17 10° NNW 21:51:05 66° W 21:54:30 12° S
Cosmos 2061 Rocket 4.4 21:46:14 10° NNW 21:52:37 65° W 21:58:55 10° S
Terra 2.5 21:49:34 10° S 21:54:11 49° W 21:58:49 10° NNW
COSMOS 2428 3.1 21:48:46 10° S 21:54:13 46° ESE 21:59:42 10° NE
FALCON 9 DEB 4.4 21:54:51 16° SSE 21:55:51 18° SE 21:58:06 10° E
Cosmos 2322 3.7 21:50:23 10° SSW 21:55:58 65° ESE 22:01:35 10° NE
SL-24 R/B 4.4 21:51:49 10° N 21:56:45 89° ENE 22:01:29 10° S
Cosmos 405 3.9 21:55:29 10° NNW 21:58:45 40° W 22:01:49 11° SSW
Cosmos 2278 Rocket 2.4 21:53:07 10° NNW 21:58:48 69° NE 22:04:01 12° SE
OPS 8737 4.4 21:55:35 10° SSW 21:59:15 57° SE 22:02:14 10° NE
ATLAS CENTAUR R/B 4.5 21:59:32 12° SE 22:03:15 20° E 22:10:31 10° ENE
Cosmos 2058 Rocket 4.1 21:59:36 10° N 22:03:45 35° ENE 22:07:18 13° SE
Cosmos 2123 Rocket 4.3 22:00:33 10° SSW 22:06:50 72° WNW 22:13:12 10° N
Cosmos 1844 Rocket 4.2 22:02:39 10° NW 22:07:16 26° WSW 22:11:53 10° SSW
Cosmos 1340 3.4 22:07:35 10° SSW 22:11:17 52° WNW 22:15:00 10° N
Cosmos 1726 Rocket 3.8 22:06:58 10° N 22:11:26 62° ENE 22:14:53 16° SSE
H-2A R/B 3.7 22:07:34 10° N 22:11:39 68° WNW 22:15:42 10° SSW
Cosmos 2233 Rocket 4.1 22:05:35 10° NNW 22:11:43 73° W 22:17:17 13° S
Cosmos 1346 Rocket 3.0 22:11:16 16° S 22:14:19 56° E 22:18:17 10° NNE
FALCON 9 DEB 3.1 22:11:18 10° WSW 22:14:40 61° SSE 22:18:03 10° E
GEOS 3 Rocket 3.8 22:11:18 14° SSE 22:15:54 67° SW 22:21:15 10° NW
FALCON 9 DEB 3.7 22:13:30 10° SSW 22:16:15 29° SSE 22:19:00 10° E
FALCON 9 DEB 3.8 22:18:01 14° SSW 22:20:05 26° SSE 22:22:47 10° E
SL-4 R/B 3.8 22:22:17 13° SE 22:22:17 13° SE 22:23:23 10° ESE
NOSS 0 Rocket 4.5 22:16:43 14° S 22:21:35 41° ESE 22:27:23 10° NE
Meteor 2-5 Rocket 3.9 22:19:26 10° SSW 22:24:58 71° WNW 22:30:37 10° N
FALCON 9 DEB 3.6 22:22:51 10° SW 22:25:41 32° SSE 22:28:30 10° E
Cosmos 1606 Rocket 3.6 22:21:22 10° NNW 22:25:53 80° W 22:29:16 17° S
Lacrosse 5 rocket 0.8 22:24:06 10° SW 22:27:43 74° SSE 22:31:18 10° ENE
ATLAS 3B R/B 2.6 22:22:50 10° SW 22:29:23 80° SE 22:36:15 10° NE
SJ 16-02 3.2 22:25:59 10° N 22:29:36 24° NE 22:33:11 10° ESE
Cosmos 1892 Rocket 3.9 22:29:33 18° SSE 22:32:38 51° E 22:36:58 10° NNE
ALOS 2 2.9 22:32:40 17° SSE 22:35:59 63° ENE 22:40:19 10° N
Meteor 2-1 Rocket 4.3 22:32:21 10° N 22:37:52 69° ENE 22:42:13 17° SSE
Cosmos 1943 Rocket 3.4 22:33:13 10° NNW 22:38:20 37° NE 22:43:25 10° ESE
Cosmos 1503 Rocket 4.1 22:34:22 10° NNW 22:39:47 78° WSW 22:43:52 18° SSE
Cosmos 1980 4.2 22:36:00 16° S 22:40:06 43° ESE 22:45:28 10° NE
Cosmos 1441 Rocket 4.4 22:38:21 18° SE 22:40:30 30° E 22:43:53 10° NNE
Cosmos 1703 4.2 22:39:40 18° SSE 22:41:59 34° E 22:45:36 10° NNE
Spot 4 3.9 22:39:08 18° S 22:42:44 72° WSW 22:47:32 10° NNW
USA 215 3.4 22:37:57 10° ENE 22:44:22 55° SE 22:50:45 10° SW
Cosmos 2333 Rocket 2.6 22:40:44 10° SW 22:46:27 65° NW 22:52:11 10° NNE
Meteor 2-10 Rocket 4.3 22:46:04 10° NNW 22:50:51 41° W 22:54:49 14° SSW
Cosmos 1464 Rocket 4.1 22:50:41 10° NNW 22:57:04 86° W 23:02:03 18° S
Cosmos 2219 Rocket 2.7 22:51:36 10° SW 22:57:14 63° NW 23:02:55 10° NNE
Cosmos 1867 4.4 22:53:24 10° NW 22:58:23 36° WSW 23:01:49 18° S
Cosmos 1607 4.1 22:53:52 10° NW 23:00:13 61° SW 23:05:04 17° SSE
Cosmos 389 Rocket 4.1 22:58:59 10° NW 23:01:51 25° W 23:04:01 14° SW
Cosmos 1626 Rocket 4.4 22:59:58 18° SSE 23:02:45 39° E 23:06:53 10° NNE
Iridium 2 4.3 23:05:20 17° SSW 23:08:02 50° W 23:11:43 10° N
COBE Rocket 4.2 23:04:31 19° S 23:08:08 62° W 23:13:03 10° NNW
SL-16 R/B 3.4 23:06:17 16° SSE 23:09:35 27° ESE 23:14:17 10° NE
CENTAUR R/B 4.4 23:03:53 10° WNW 23:10:16 40° N 23:17:43 10° ENE
MTI 4.1 23:09:53 10° NNE 23:12:51 46° E 23:14:12 26° SSE
Cosmos 2237 Rocket 2.2 23:09:08 16° SSW 23:13:38 68° ESE 23:19:14 10° NE
Meteor 1-4 Rocket 2.5 23:11:14 10° N 23:14:44 70° ENE 23:16:45 23° SSE
Cosmos 1455 3.3 23:14:44 10° NNW 23:18:15 35° W 23:20:36 17° SSW
Cosmos 2360 Rocket 4.3 23:15:41 10° W 23:20:26 27° NW 23:25:13 10° NNE
USA 267 3.5 23:14:47 13° SE 23:20:32 51° SW 23:26:55 10° WNW
Cosmos 2369 Rocket 3.4 23:15:26 10° NNW 23:20:52 41° NE 23:26:16 10° ESE
Cosmos 1184 Rocket 3.1 23:22:45 21° SSW 23:24:42 60° WNW 23:27:57 10° N
Lacrosse 4 Rocket 4.3 23:22:26 10° NNW 23:25:02 16° NNE 23:27:35 10° ENE
OPS 6432 4.3 23:24:42 10° NW 23:27:39 71° NE 23:30:35 12° SE
Cosmos 1777 Rocket 4.1 23:24:22 10° NNW 23:29:39 70° WSW 23:33:25 19° SSE
Cosmos-2242 3.9 23:25:44 10° N 23:29:59 45° ENE 23:33:23 15° SE
Okean 1-7 Rocket 3.6 23:27:36 20° SSW 23:30:43 78° W 23:35:11 10° N
FALCON 9 DEB 2.8 23:28:03 10° WSW 23:31:08 61° SSE 23:34:15 10° E
Cosmos 2034 Rocket 4.1 23:24:58 10° NNW 23:31:09 70° W 23:35:44 19° S
Meteor 1-21 Rocket 4.4 23:33:20 17° SSW 23:37:48 74° WNW 23:43:33 10° N
COSMOS 2428 3.8 23:33:07 10° WSW 23:38:36 44° NW 23:44:06 10° NNE
Cosmos 2058 Rocket 4.3 23:37:45 10° NNW 23:41:41 31° W 23:44:34 16° SW
Cosmos 2297 3.7 23:36:11 10° NNW 23:41:51 82° WSW 23:46:31 16° SSE
Cosmos 1812 Rocket 3.5 23:38:01 10° N 23:42:23 89° WNW 23:45:17 21° S
Cosmos 2278 Rocket 3.5 23:37:50 10° NW 23:42:26 26° WSW 23:45:51 15° SSW
Cosmos 192 4.4 23:38:55 16° SSW 23:42:51 81° WNW 23:47:49 10° NNE
Meteor 1-27 4.4 23:40:16 10° N 23:45:50 67° ENE 23:50:25 15° SSE
Cosmos 724 4.5 23:39:49 10° NW 23:45:58 64° SW 23:50:57 15° SSE
USA 40 PKM 4.5 23:41:59 10° WSW 23:47:27 78° SSE 23:50:58 10° ENE
Meteor 1-11 4.4 23:44:20 19° S 23:48:21 65° E 23:53:53 10° NNE
GENESIS II 4.3 23:46:51 12° SW 23:50:25 76° NW 23:54:20 10° NE
FALCON 9 DEB 3.0 23:48:05 10° W 23:51:31 90° NW 23:54:56 10° E
FALCON 9 DEB 2.7 23:48:31 10° WSW 23:51:37 80° S 23:54:43 10° E
FALCON 9 DEB 2.7 23:52:23 10° WSW 23:55:31 76° SSE 23:58:38 10° E
